Location: Kellogg
(38.0159°N, 90.0546°W)
Time: 20:17:34
(UTC+00:00)

Vanguard 1 - Pass Details

Date: 17 September 2024
Orbit: 648 x 3825 km, 34.3° (Epoch: 11 October)

Event Time Altitude Azimuth Distance (km) Brightness Sun altitude
Rises 20:32:05 0° 268° (W) 5,448 14.5 38.9°
Reaches altitude 10° 20:36:25 10° 266° (W) 3,935 14.1 38.2°
Maximum altitude 20:45:29 65° 188° (S) 1,152 11.4 36.7°
Drops below altitude 10° 20:50:47 10° 106° (ESE) 2,357 11.8 35.8°
Sets 20:52:48 0° 103° (ESE) 3,136 12.3 35.5°
